Regional Weather Roundup
Issued by NWS Upton, NY

Current Version | Previous Version | Graphics & Text | Print | Product List | Glossary Off
Versions: 1 2 3 4 5 6 7 8 9 10 11 12 13 14 15 16 17 18 19 20 21 22 23 24 25 26 27 28 29 30 31 32 33 34 35 36 37 38 39 40 41 42 43 44 45 46 47 48 49 50

000
ASUS41 KOKX 012008
RWROKX

REGIONAL WEATHER ROUNDUP
NATIONAL WEATHER SERVICE NEW YORK NY
300 PM EST WED MAR 01 2017

NOTE: "FAIR" INDICATES FEW OR NO CLOUDS BELOW 12,000 FEET WITH NO
SIGNIFICANT WEATHER AND/OR OBSTRUCTIONS TO VISIBILITY.

NYZ071-072-176-178-NJZ106-104-012100-
NEW YORK CITY METRO AREA

CITY           SKY/WX    TMP DP  RH WIND       PRES   REMARKS
Central Park   MOSUNNY   64  57  78 S5        29.54F
Wall St Helipt CLOUDY    64  57  77 W3        29.53F
LaGuardia APRT PTSUNNY   63  55  75 SE9       29.51F
Kennedy INTL   CLOUDY    56  53  90 SW15      29.55F
Breezy Point     N/A     52 N/A N/A S5          N/A
Newark/Liberty CLOUDY    72  60  66 SW18G26   29.50F
Teterboro      CLOUDY    68  61  78 S8G20     29.50F
$$

NYZ177-179-078>081-012100-
LONG ISLAND NEW YORK

CITY           SKY/WX    TMP DP  RH WIND       PRES   REMARKS
Jones Beach      N/A     50 N/A N/A S17G24      N/A
Matinecock PT  NOT AVBL
Farmingdale    CLOUDY    56  54  93 SW14G21   29.54F
MacArthur/ISP  CLOUDY    54  54 100 SW16      29.54F FOG
Shirley        CLOUDY    52  52 100 S15G22    29.56F FOG
Westhampton    FOG       51  50  96 SW14G25   29.57F VSB 1/2
Southampton      N/A     48  48 100 SW12      29.53F
Bridgehampton  NOT AVBL
East Hampton   FOG       50  50  99 SW15G24   29.56F VSB 1/4
Montauk          N/A     50  50 100 S13G23    29.57F
$$

NYZ052-065-067-012100-
HUDSON VALLEY

CITY           SKY/WX    TMP DP  RH WIND       PRES   REMARKS
White Plains   CLOUDY    61  57  87 S8        29.51F FOG
Newburgh       CLOUDY    63  59  88 SW17      29.50F
Montgomery     CLOUDY    63  57  81 SW17G23   29.47F
Poughkeepsie   CLOUDY    62  56  80 S6        29.48S
Albany         CLOUDY    63  53  70 S13G24    29.38S
$$

NJZ001-105-106-008-010-013-015-019>022-104-012100-
NEW JERSEY

CITY           SKY/WX    TMP DP  RH WIND       PRES   REMARKS
Newark/Liberty CLOUDY    72  60  66 SW18G26   29.50F
Teterboro      CLOUDY    68  61  78 S8G20     29.50F
Caldwell       CLOUDY    67  60  78 VRB6      29.51F
Somerville     CLOUDY    72  59  63 VRB7      29.49F
Linden         NOT AVBL
Sussex         CLOUDY    62  58  86 SW7G16    29.52F
Andover          N/A     63  57  81 VRB7      29.52F
Trenton        CLOUDY    73  59  61 SW21G30   29.53F
Millville      CLOUDY    71  61  70 SW13G23   29.59F
Atlantic City  MOSUNNY   66  57  72 S9        29.60F
Wrightstown    PTSUNNY   73  60  65 SW28G35   29.53F
Toms River     CLOUDY    73  61  65 SW21G37   29.57F
Belmar         CLOUDY    73  60  63 SW15G30   29.55F
$$

PAZ047>061-062-071-012100-
EASTERN PENNSYLVANIA

CITY           SKY/WX    TMP DP  RH WIND       PRES   REMARKS
Philadelphia   LGT RAIN  72  60  66 SW23      29.56S
Allentown      RAIN      65  59  81 SW14      29.52F
Scranton       CLOUDY    62  56  80 SW13G25   29.45F
$$

CTZ002-004>006-009-010-012-RIZ004-006-007-MAZ004-011-015-012100-
SOUTHERN NEW ENGLAND
 IN CT

CITY           SKY/WX    TMP DP  RH WIND       PRES   REMARKS
Bradley INTL   CLOUDY    58  55  90 S10       29.48F
Hartford       CLOUDY    59  55  87 S16G23    29.49F
Danbury        CLOUDY    62  57  83 SW12G22   29.51F
Wtrbury/Oxford CLOUDY    57  54  88 SW9G17    29.55  FOG
Bridgeport     FOG       50  49  96 SW6       29.54S VSB 1/4
Meriden        CLOUDY    55  52  89 S16G22    29.53S FOG
New Haven      FOG       47  47 100 S6        29.55R VSB<1/4
Chester        FOG       52  52 100 VRB7G18   29.55R VSB<1/4
Groton         FOG       48  47  96 SW13      29.55F VSB 1/4
Wilimantic     CLOUDY    61  57  87 SW12      29.52F

 IN RI

CITY           SKY/WX    TMP DP  RH WIND       PRES   REMARKS
Providence     CLOUDY    56  54  93 S14       29.52F
Block Island   NOT AVBL
Westerly       FOG       50  47  89 SW14G24   29.56R VSB 1/4
 IN MA

CITY           SKY/WX    TMP DP  RH WIND       PRES   REMARKS
Boston         CLOUDY    58  53  84 SW18G25   29.46F
Worcester      CLOUDY    57  52  83 SW30G40   29.46S
Westfield      CLOUDY    59  55  87 S16G24    29.46F
Provincetown   CLOUDY    50  50 100 S23G36    29.47F FOG
Nantucket      LGT RAIN  48  46  93 SW17      29.60F VSB 1/4
$$

ANZ330-335-338-340-345-350-353-355-012100-
COASTAL MARINE OBSERVATIONS


STATION/POSITION TIME  SKY/WX   TEMP    WIND        PRES    VSBY  WAVE
                                AIR SEA DIR/SP/G                  HT/PER
                 (UTC)          (F)     (DEG/KT/KT) (MB)    (MI)  (FT/S)
NY HARB ENTRANCE 1850            48 44  190/ 17/ 21 1001.5          5/ 8
20 S FIRE ISLAND 1950            50 42  210/ 25/ 29 1000.8          6/ 8
GREAT SOUTH BAY  NOT AVBL
23 SSW MONTAUK P 1850            50 47              1003.4          6/ 8
15 E BARNEGAT LI 1930               44                N/A           7/ 7
HUDSON CANYON    1850            55 47  210/ 23/ 25 1004.9          8/ 8
KINGS POINT      1942            54 41               999.5
EXECUTION ROCKS  NOT AVBL
CENTRAL LI SOUND 1915            46     180/ 12/ 14   N/A           1
EASTERN LI SOUND NOT AVBL
ROBBINS REEF     1942            61     170/ 10/ 10  999.6
$$


>>>>>>>>>>>>>>>>>>>>>>>>>>>> KEY <<<<<<<<<<<<<<<<<<<<<<<<<<<
>                                                          <
>     SKY/WX - Sky Condition/Present Weather               <
>     TMP    - Temperature in Fahrenheit                   <
>     DP     - Dew Point in Fahrenheit                     <
>     RH     - Relative Humidity in Percent                <
>     WIND   - Direction (from) and Speed in MPH           <
>     PRES   - Mean Sea Level Pressure (inches of Hg)      <
>     WCI    - Wind Chill Index                            <
>     VSB    - VISIBILITY IN MILES                         <
>     HX     - HEAT INDEX                                  <
>     TC     - TEMPERATURE IN CELSIUS                      <
>     VRB    - VARIABLE WIND DIRECTION                     <
>                                                          <
>>>>>>>>>>>>>>>>>>>>>>>>>>>> KEY <<<<<<<<<<<<<<<<<<<<<<<<<<<



USA.gov is the U.S. government's official web portal to all federal, state and local government web resources and services.